^^
Paulen-Weather Station Historical Data
Daily Summary for January 30, 2020 Units:  Metric    English   Both
Daily Weekly Monthly Yearly Custom
  High: Low: Average:
Temperature: 3 °C 2 °C 2.2 °C
Dew Point: 2 °C 1 °C 1.8 °C
Humidity: 98% 95% 97%
Wind Speed: 11km/h 0km/h 6.2km/h
Wind Gust: 11km/h - -
Wind- - NE
Pressure: 996.07 hPa 993.4 hPa -
Precipitation: 1.4 mm    
Historical Graphs
 
 
Tabular Data for January 30, 2020
Time Temperature Dew Point Pressure Wind Wind Speed Wind Gust Humidity Rainfall Rate (Hourly) solar
00:04 3 °C 2 °C 994.24 hPa WNW 5 km/h 5 km/h 96% 0 mm 0 W/m2
00:09 2 °C 2 °C 994.04 hPa WNW 1 km/h 5 km/h 96% 0 mm 0 W/m2
00:14 3 °C 2 °C 994.01 hPa Calm   2 km/h 96% 0 mm 0 W/m2
00:19 3 °C 2 °C 993.91 hPa Calm     96% 0 mm 0 W/m2
00:24 3 °C 2 °C 993.94 hPa Calm     96% 0 mm 0 W/m2
00:29 3 °C 2 °C 993.91 hPa WNW 1 km/h 2 km/h 96% 0 mm 0 W/m2
00:34 3 °C 2 °C 993.91 hPa N 5 km/h 5 km/h 96% 0 mm 0 W/m2
00:39 2 °C 2 °C 993.84 hPa NNE 7 km/h 7 km/h 96% 0 mm 0 W/m2
00:44 2 °C 2 °C 993.8 hPa NNE 9 km/h 8 km/h 96% 0 mm 0 W/m2
00:49 2 °C 2 °C 993.8 hPa NNE 10 km/h 11 km/h 96% 0 mm 0 W/m2
00:54 2 °C 2 °C 993.74 hPa NE 9 km/h 11 km/h 96% 0 mm 0 W/m2
00:59 2 °C 2 °C 993.7 hPa NE 9 km/h 10 km/h 97% 0 mm 0 W/m2
01:04 2 °C 2 °C 993.67 hPa NE 8 km/h 11 km/h 97% 0 mm 0 W/m2
01:09 2 °C 2 °C 993.63 hPa NE 7 km/h 10 km/h 97% 0 mm 0 W/m2
01:14 2 °C 2 °C 993.6 hPa NNE 8 km/h 8 km/h 97% 0 mm 0 W/m2
01:19 2 °C 2 °C 993.63 hPa NNE 10 km/h 10 km/h 97% 0 mm 0 W/m2
01:24 2 °C 2 °C 993.63 hPa NNE 11 km/h 11 km/h 97% 0.2 mm 0 W/m2
01:29 2 °C 2 °C 993.63 hPa N 7 km/h 11 km/h 97% 0.2 mm 0 W/m2
01:34 2 °C 2 °C 993.57 hPa NNE 8 km/h 8 km/h 97% 0.2 mm 0 W/m2
01:39 2 °C 2 °C 993.4 hPa NE 6 km/h 10 km/h 97% 0.41 mm 0 W/m2
01:44 2 °C 2 °C 993.4 hPa NNE 4 km/h 6 km/h 97% 0.41 mm 0 W/m2
01:49 2 °C 2 °C 993.4 hPa NNE 5 km/h 7 km/h 97% 0.61 mm 0 W/m2
01:54 2 °C 2 °C 993.46 hPa NNW 6 km/h 8 km/h 97% 0.79 mm 0 W/m2
01:59 2 °C 2 °C 993.46 hPa NNE 6 km/h 8 km/h 97% 0.79 mm 0 W/m2
02:04 2 °C 2 °C 993.5 hPa N 5 km/h 8 km/h 97% 0.79 mm 0 W/m2
02:09 2 °C 2 °C 993.5 hPa NNE 6 km/h 5 km/h 97% 0.79 mm 0 W/m2
02:14 2 °C 2 °C 993.53 hPa NNE 5 km/h 5 km/h 97% 0.79 mm 0 W/m2
02:19 2 °C 2 °C 993.57 hPa NNE 4 km/h 5 km/h 97% 0.79 mm 0 W/m2
02:24 2 °C 2 °C 993.63 hPa NNE 3 km/h 5 km/h 97% 0.79 mm 0 W/m2
02:29 2 °C 2 °C 993.6 hPa NNE 5 km/h 5 km/h 97% 0.61 mm 0 W/m2
02:34 2 °C 2 °C 993.6 hPa NNE 5 km/h 6 km/h 97% 0.61 mm 0 W/m2
02:39 2 °C 2 °C 993.63 hPa NNE 5 km/h 5 km/h 97% 0.41 mm 0 W/m2
02:44 2 °C 2 °C 993.67 hPa NNE 5 km/h 5 km/h 97% 0.41 mm 0 W/m2
02:49 2 °C 2 °C 993.67 hPa NNE 3 km/h 5 km/h 97% 0.41 mm 0 W/m2
02:54 2 °C 2 °C 993.7 hPa NNE 4 km/h 4 km/h 97% 0.2 mm 0 W/m2
02:59 2 °C 2 °C 993.67 hPa NNE 5 km/h 5 km/h 97% 0.2 mm 0 W/m2
03:04 2 °C 2 °C 993.67 hPa NNE 4 km/h 5 km/h 97% 0.2 mm 0 W/m2
03:09 2 °C 2 °C 993.67 hPa NNE 5 km/h 4 km/h 97% 0.2 mm 0 W/m2
03:14 2 °C 2 °C 993.67 hPa NE 6 km/h 5 km/h 97% 0.2 mm 0 W/m2
03:19 2 °C 2 °C 993.67 hPa NE 6 km/h 5 km/h 97% 0.2 mm 0 W/m2
03:24 2 °C 2 °C 993.67 hPa NE 8 km/h 8 km/h 97% 0.2 mm 0 W/m2
03:29 2 °C 2 °C 993.7 hPa NE 7 km/h 10 km/h 97% 0.2 mm 0 W/m2
03:34 2 °C 2 °C 993.77 hPa NNE 9 km/h 8 km/h 97% 0.2 mm 0 W/m2
03:39 2 °C 2 °C 993.77 hPa NNE 8 km/h 11 km/h 97% 0.2 mm 0 W/m2
03:44 2 °C 2 °C 993.77 hPa NE 8 km/h 10 km/h 97% 0.41 mm 0 W/m2
03:49 2 °C 2 °C 993.74 hPa NE 6 km/h 10 km/h 97% 0.41 mm 0 W/m2
03:54 2 °C 2 °C 993.67 hPa NE 6 km/h 8 km/h 97% 0.41 mm 0 W/m2
03:59 2 °C 2 °C 993.67 hPa NE 5 km/h 6 km/h 97% 0.2 mm 0 W/m2
04:04 2 °C 2 °C 993.63 hPa Calm   5 km/h 97% 0.2 mm 0 W/m2
04:09 2 °C 2 °C 993.63 hPa NE 4 km/h 4 km/h 97% 0.2 mm 0 W/m2
04:14 2 °C 2 °C 993.57 hPa NE 5 km/h 5 km/h 97% 0.2 mm 0 W/m2
04:19 2 °C 2 °C 993.53 hPa NE 6 km/h 6 km/h 97% 0.2 mm 0 W/m2
04:24 2 °C 2 °C 993.6 hPa NE 6 km/h 6 km/h 97% 0.2 mm 0 W/m2
04:29 2 °C 2 °C 993.6 hPa NNE 6 km/h 6 km/h 97% 0.2 mm 0 W/m2
04:34 2 °C 2 °C 993.6 hPa NE 7 km/h 8 km/h 97% 0.2 mm 0 W/m2
04:39 2 °C 2 °C 993.63 hPa NE 7 km/h 8 km/h 97% 0.2 mm 0 W/m2
04:44 2 °C 2 °C 993.67 hPa NNE 7 km/h 8 km/h 97% 0.2 mm 0 W/m2
04:49 2 °C 2 °C 993.67 hPa NNE 6 km/h 8 km/h 97% 0 mm 0 W/m2
04:54 2 °C 2 °C 993.67 hPa NNE 8 km/h 8 km/h 98% 0 mm 0 W/m2
04:59 2 °C 2 °C 993.7 hPa NNE 8 km/h 10 km/h 97% 0 mm 0 W/m2
05:04 2 °C 2 °C 993.67 hPa NNE 7 km/h 8 km/h 97% 0 mm 0 W/m2
05:09 2 °C 2 °C 993.77 hPa NNE 9 km/h 9 km/h 98% 0 mm 0 W/m2
05:14 2 °C 2 °C 993.8 hPa NNE 8 km/h 11 km/h 97% 0 mm 0 W/m2
05:19 2 °C 2 °C 993.84 hPa NNE 11 km/h 10 km/h 97% 0 mm 0 W/m2
05:24 2 °C 2 °C 993.87 hPa NE 9 km/h 11 km/h 97% 0 mm 0 W/m2
05:29 2 °C 2 °C 993.87 hPa NE 9 km/h 11 km/h 97% 0 mm 0 W/m2
05:34 2 °C 2 °C 994.04 hPa NE 7 km/h 10 km/h 97% 0 mm 0 W/m2
05:39 2 °C 2 °C 993.97 hPa NE 9 km/h 10 km/h 98% 0 mm 0 W/m2
05:44 2 °C 2 °C 994.04 hPa NE 6 km/h 7 km/h 98% 0 mm 0 W/m2
05:49 2 °C 2 °C 994.14 hPa NE 6 km/h 8 km/h 98% 0 mm 0 W/m2
05:54 2 °C 2 °C 994.18 hPa NNE 6 km/h 6 km/h 98% 0 mm 0 W/m2
05:59 2 °C 2 °C 994.21 hPa NNE 6 km/h 8 km/h 98% 0 mm 0 W/m2
06:04 2 °C 2 °C 994.24 hPa NNE 6 km/h 8 km/h 98% 0 mm 0 W/m2
06:09 2 °C 2 °C 994.31 hPa NNE 6 km/h 6 km/h 98% 0 mm 0 W/m2
06:14 2 °C 2 °C 994.38 hPa NE 4 km/h 5 km/h 98% 0 mm 0 W/m2
06:19 2 °C 2 °C 994.38 hPa NE 5 km/h 5 km/h 98% 0 mm 0 W/m2
06:24 2 °C 2 °C 994.35 hPa NE 5 km/h 5 km/h 98% 0 mm 0 W/m2
06:29 2 °C 2 °C 994.38 hPa NE 6 km/h 6 km/h 98% 0 mm 0 W/m2
06:34 2 °C 2 °C 994.35 hPa NE 6 km/h 6 km/h 98% 0 mm 0 W/m2
06:39 2 °C 2 °C 994.38 hPa NE 6 km/h 6 km/h 98% 0 mm 0 W/m2
06:44 2 °C 2 °C 994.48 hPa NE 6 km/h 7 km/h 98% 0 mm 0 W/m2
06:49 2 °C 2 °C 994.51 hPa NE 7 km/h 8 km/h 98% 0 mm 0 W/m2
06:54 2 °C 2 °C 994.51 hPa NE 6 km/h 8 km/h 98% 0 mm 0 W/m2
06:59 2 °C 2 °C 994.48 hPa NE 6 km/h 8 km/h 97% 0 mm 0 W/m2
07:04 2 °C 2 °C 994.45 hPa NE 7 km/h 8 km/h 97% 0 mm 0 W/m2
07:09 2 °C 2 °C 994.41 hPa NE 7 km/h 8 km/h 97% 0 mm 0 W/m2
07:14 2 °C 1 °C 994.35 hPa NNE 9 km/h 8 km/h 97% 0 mm 0 W/m2
07:19 2 °C 2 °C 994.31 hPa NNE 7 km/h 10 km/h 97% 0 mm 0 W/m2
07:24 2 °C 2 °C 994.45 hPa NNE 7 km/h 6 km/h 97% 0 mm 0 W/m2
07:29 2 °C 2 °C 994.48 hPa NNE 9 km/h 10 km/h 97% 0 mm 0 W/m2
07:34 2 °C 1 °C 994.51 hPa N 9 km/h 8 km/h 97% 0 mm 0 W/m2
07:39 2 °C 1 °C 994.51 hPa NNE 6 km/h 10 km/h 97% 0 mm 0 W/m2
07:44 2 °C 1 °C 994.51 hPa NNE 6 km/h 8 km/h 97% 0 mm 0 W/m2
07:49 2 °C 1 °C 994.51 hPa NE 9 km/h 8 km/h 97% 0 mm 0 W/m2
07:54 2 °C 1 °C 994.58 hPa NE 8 km/h 10 km/h 97% 0 mm 0 W/m2
07:59 2 °C 1 °C 994.62 hPa NE 7 km/h 10 km/h 97% 0 mm 0 W/m2
08:04 2 °C 1 °C 994.72 hPa NNE 7 km/h 8 km/h 97% 0 mm 0 W/m2
08:09 2 °C 1 °C 994.75 hPa NNE 7 km/h 8 km/h 97% 0 mm 0 W/m2
08:14 2 °C 1 °C 994.79 hPa NNE 7 km/h 8 km/h 97% 0 mm 0 W/m2
08:19 2 °C 1 °C 994.85 hPa NE 6 km/h 8 km/h 97% 0 mm 0 W/m2
08:24 2 °C 1 °C 994.95 hPa NE 6 km/h 6 km/h 97% 0 mm 0 W/m2
08:29 2 °C 1 °C 994.95 hPa NE 6 km/h 5 km/h 97% 0 mm 0 W/m2
08:34 2 °C 1 °C 994.99 hPa ENE 6 km/h 6 km/h 97% 0 mm 0 W/m2
08:39 2 °C 1 °C 995.02 hPa NE 6 km/h 8 km/h 97% 0 mm 0 W/m2
08:44 2 °C 1 °C 995.02 hPa NE 9 km/h 8 km/h 97% 0 mm 5 W/m2
08:49 2 °C 1 °C 994.99 hPa NE 8 km/h 11 km/h 97% 0 mm 5 W/m2
08:54 2 °C 1 °C 994.99 hPa NE 7 km/h 10 km/h 97% 0 mm 7 W/m2
08:59 2 °C 1 °C 995.12 hPa NE 6 km/h 8 km/h 97% 0 mm 9 W/m2
09:04 2 °C 1 °C 995.16 hPa NE 7 km/h 6 km/h 97% 0 mm 11 W/m2
09:09 2 °C 1 °C 995.23 hPa NE 7 km/h 8 km/h 97% 0 mm 11 W/m2
09:14 2 °C 1 °C 995.33 hPa NE 8 km/h 8 km/h 97% 0 mm 14 W/m2
09:19 2 °C 1 °C 995.29 hPa NE 7 km/h 10 km/h 97% 0 mm 21 W/m2
09:24 2 °C 1 °C 995.26 hPa NE 6 km/h 8 km/h 97% 0 mm 26 W/m2
09:29 2 °C 1 °C 995.26 hPa NE 1 km/h 6 km/h 97% 0 mm 28 W/m2
09:34 2 °C 2 °C 995.29 hPa Calm   3 km/h 97% 0 mm 28 W/m2
09:39 2 °C 2 °C 995.26 hPa NE 6 km/h 5 km/h 97% 0 mm 30 W/m2
09:44 2 °C 2 °C 995.26 hPa NE 5 km/h 6 km/h 97% 0 mm 37 W/m2
09:49 2 °C 2 °C 995.19 hPa NE 6 km/h 6 km/h 97% 0 mm 40 W/m2
09:54 2 °C 2 °C 995.4 hPa NNE 6 km/h 6 km/h 97% 0 mm 42 W/m2
09:59 2 °C 2 °C 995.56 hPa N 8 km/h 7 km/h 97% 0 mm 42 W/m2
10:04 2 °C 2 °C 995.6 hPa NNE 7 km/h 10 km/h 97% 0 mm 44 W/m2
10:09 2 °C 2 °C 995.67 hPa N 7 km/h 8 km/h 97% 0 mm 47 W/m2
10:14 2 °C 2 °C 995.8 hPa N 7 km/h 8 km/h 97% 0 mm 60 W/m2
10:19 2 °C 2 °C 995.84 hPa N 8 km/h 10 km/h 97% 0 mm 84 W/m2
10:24 2 °C 2 °C 995.94 hPa N 8 km/h 10 km/h 97% 0 mm 88 W/m2
10:29 2 °C 2 °C 996 hPa NNE 8 km/h 10 km/h 97% 0 mm 84 W/m2
10:34 2 °C 2 °C 996 hPa NNE 7 km/h 8 km/h 97% 0 mm 88 W/m2
10:39 2 °C 2 °C 996 hPa NNE 7 km/h 8 km/h 96% 0 mm 88 W/m2
10:44 2 °C 1 °C 995.97 hPa NNE 7 km/h 8 km/h 96% 0 mm 91 W/m2
10:49 2 °C 2 °C 995.84 hPa NNE 7 km/h 8 km/h 96% 0 mm 95 W/m2
10:54 2 °C 2 °C 995.94 hPa NNE 7 km/h 8 km/h 96% 0 mm 90 W/m2
10:59 2 °C 2 °C 995.87 hPa NNE 8 km/h 10 km/h 96% 0 mm 70 W/m2
11:04 2 °C 2 °C 995.77 hPa NNE 7 km/h 10 km/h 96% 0 mm 74 W/m2
11:09 2 °C 2 °C 995.73 hPa NE 7 km/h 8 km/h 96% 0 mm 77 W/m2
11:14 2 °C 2 °C 995.7 hPa NE 7 km/h 8 km/h 96% 0 mm 77 W/m2
11:19 2 °C 2 °C 995.8 hPa NE 6 km/h 8 km/h 96% 0 mm 81 W/m2
11:24 2 °C 2 °C 995.84 hPa NE 8 km/h 8 km/h 96% 0 mm 86 W/m2
11:29 2 °C 2 °C 995.87 hPa NNE 7 km/h 10 km/h 96% 0 mm 86 W/m2
11:34 2 °C 2 °C 995.94 hPa NNE 8 km/h 9 km/h 96% 0 mm 91 W/m2
11:39 2 °C 2 °C 995.97 hPa NE 9 km/h 10 km/h 96% 0 mm 95 W/m2
11:44 2 °C 2 °C 995.94 hPa NE 8 km/h 10 km/h 96% 0 mm 90 W/m2
11:49 2 °C 2 °C 996.04 hPa NE 8 km/h 10 km/h 96% 0 mm 76 W/m2
11:54 2 °C 2 °C 996.07 hPa NE 8 km/h 8 km/h 96% 0 mm 65 W/m2
11:59 2 °C 2 °C 996.07 hPa ENE 8 km/h 10 km/h 96% 0 mm 53 W/m2
12:04 2 °C 2 °C 996.07 hPa ENE 7 km/h 10 km/h 96% 0 mm 49 W/m2
12:09 2 °C 2 °C 996 hPa E 6 km/h 8 km/h 96% 0 mm 54 W/m2
12:14 2 °C 2 °C 995.9 hPa E 4 km/h 8 km/h 96% 0 mm 63 W/m2
12:19 2 °C 2 °C 995.94 hPa ESE 3 km/h 5 km/h 96% 0 mm 51 W/m2
12:24 2 °C 2 °C 995.9 hPa ESE 1 km/h 3 km/h 96% 0 mm 37 W/m2
12:29 3 °C 2 °C 995.8 hPa ESE 5 km/h 5 km/h 96% 0 mm 37 W/m2
12:34 3 °C 2 °C 995.7 hPa E 5 km/h 5 km/h 96% 0 mm 33 W/m2
12:39 3 °C 2 °C 995.7 hPa ESE 4 km/h 6 km/h 96% 0 mm 37 W/m2
12:44 3 °C 2 °C 995.67 hPa ESE 6 km/h 5 km/h 95% 0 mm 37 W/m2
12:49 3 °C 2 °C 995.56 hPa ESE 5 km/h 6 km/h 95% 0.2 mm 33 W/m2
12:54 3 °C 2 °C 995.53 hPa E 5 km/h 4 km/h 95% 0.2 mm 46 W/m2
12:59 3 °C 2 °C 995.5 hPa NE 6 km/h 5 km/h 95% 0.2 mm 47 W/m2
13:04 3 °C 2 °C 995.53 hPa NE 7 km/h 6 km/h 95% 0.2 mm 49 W/m2
13:09 3 °C 2 °C 995.63 hPa NE 7 km/h 7 km/h 95% 0.2 mm 49 W/m2
13:14 3 °C 2 °C 995.53 hPa NE 6 km/h 5 km/h 95% 0.2 mm 53 W/m2
13:19 3 °C 2 °C 995.43 hPa NE 4 km/h 6 km/h 95% 0.2 mm 42 W/m2
13:24 3 °C 2 °C 995.43 hPa NE 6 km/h 5 km/h 95% 0.2 mm 37 W/m2
13:29 3 °C 2 °C 995.43 hPa NE 4 km/h 5 km/h 95% 0.2 mm 46 W/m2
13:34 3 °C 2 °C 995.53 hPa NE 2 km/h 3 km/h 95% 0.2 mm 47 W/m2
13:39 3 °C 2 °C 995.53 hPa NE 4 km/h 4 km/h 95% 0.2 mm 25 W/m2
13:44 3 °C 2 °C 995.46 hPa NE 6 km/h 5 km/h 95% 0.2 mm 18 W/m2
13:49 3 °C 2 °C 995.43 hPa NE 6 km/h 6 km/h 95% 0.2 mm 18 W/m2
13:54 3 °C 2 °C 995.36 hPa NNE 6 km/h 6 km/h 95% 0 mm 16 W/m2
13:59 3 °C 2 °C 995.33 hPa NNE 6 km/h 6 km/h 95% 0 mm 14 W/m2
14:04 3 °C 2 °C 995.33 hPa NNE 4 km/h 5 km/h 95% 0 mm 25 W/m2
14:09 3 °C 2 °C 995.33 hPa NNE 5 km/h 3 km/h 95% 0 mm 25 W/m2
14:14 3 °C 2 °C 995.23 hPa NE 6 km/h 6 km/h 95% 0 mm 21 W/m2
14:19 3 °C 2 °C 995.12 hPa NE 6 km/h 6 km/h 95% 0 mm 19 W/m2
Compliments of Weather Underground - 2 mb